• In Hungary
  • List of Countries
  • For 7 days
  • Water Temperature
  • Satellite Maps
  • Weather Map
  • News
  • Weather Widgets
  • user-avatar
    Login

    Hourly Weather Auckland

    Today, 24 November, Friday

    Time Temperature Precipitation Wind Pressure Humidity
    00:00 +15°C° 0 mm 1 mps 770 mmHg 94%
    01:00 +14°C° 0 mm 1 mps 770 mmHg 94%
    02:00 +14°C° 0 mm 1 mps 770 mmHg 94%
    03:00 +14°C° 0 mm 1 mps 770 mmHg 94%
    04:00 +14°C° 0 mm 1 mps 770 mmHg 92%
    05:00 +14°C° 0 mm 0 mps 770 mmHg 90%
    06:00 +15°C° 0 mm 1 mps 770 mmHg 85%
    07:00 +19°C° 0 mm 1 mps 770 mmHg 73%
    08:00 +20°C° 0 mm 2 mps 770 mmHg 62%
    09:00 +24°C° 0 mm 2 mps 770 mmHg 50%
    10:00 +25°C° 0 mm 2 mps 770 mmHg 47%
    11:00 +27°C° 0 mm 3 mps 769 mmHg 43%
    12:00 +26°C° 0 mm 3 mps 770 mmHg 43%
    13:00 +27°C° 0 mm 3 mps 769 mmHg 43%
    14:00 +27°C° 0 mm 3 mps 769 mmHg 42%
    15:00 +27°C° 0 mm 3 mps 768 mmHg 42%
    16:00 +25°C° 0 mm 3 mps 768 mmHg 48%
    17:00 +24°C° 0 mm 3 mps 768 mmHg 54%
    18:00 +20°C° 0 mm 3 mps 768 mmHg 60%
    19:00 +19°C° 0 mm 3 mps 769 mmHg 68%
    20:00 +17°C° 0 mm 2 mps 769 mmHg 76%
    21:00 +16°C° 0 mm 2 mps 769 mmHg 84%
    22:00 +15°C° 0 mm 2 mps 769 mmHg 86%
    23:00 +15°C° 0 mm 2 mps 769 mmHg 88%

    Tomorrow, 25 November, Saturday

    Time Temperature Precipitation Wind Pressure Humidity
    00:00 +15°C° 0 mm 2 mps 769 mmHg 91%
    01:00 +14°C° 0 mm 2 mps 769 mmHg 91%
    02:00 +14°C° 0 mm 1 mps 769 mmHg 92%
    03:00 +14°C° 0 mm 1 mps 769 mmHg 93%
    04:00 +14°C° 0 mm 1 mps 769 mmHg 90%
    05:00 +15°C° 0 mm 1 mps 769 mmHg 87%
    06:00 +15°C° 0 mm 1 mps 769 mmHg 85%
    07:00 +18°C° 0 mm 1 mps 769 mmHg 75%
    08:00 +20°C° 0 mm 1 mps 769 mmHg 65%
    09:00 +23°C° 0 mm 1 mps 769 mmHg 54%
    10:00 +24°C° 0 mm 2 mps 769 mmHg 51%
    11:00 +25°C° 0 mm 2 mps 769 mmHg 48%
    12:00 +26°C° 0 mm 3 mps 768 mmHg 44%
    13:00 +26°C° 0 mm 3 mps 768 mmHg 46%
    14:00 +26°C° 0 mm 3 mps 768 mmHg 48%
    15:00 +25°C° 0 mm 4 mps 768 mmHg 50%
    16:00 +24°C° 0 mm 3 mps 767 mmHg 55%
    17:00 +22°C° 0 mm 3 mps 767 mmHg 60%
    18:00 +20°C° 0 mm 3 mps 767 mmHg 65%
    19:00 +19°C° 0 mm 3 mps 768 mmHg 71%
    20:00 +18°C° 0 mm 2 mps 768 mmHg 76%
    21:00 +17°C° 0 mm 2 mps 768 mmHg 82%
    22:00 +16°C° 0 mm 2 mps 768 mmHg 82%
    23:00 +16°C° 0 mm 1 mps 768 mmHg 83%

    Day after tomorrow, 26 November, Sunday

    Time Temperature Precipitation Wind Pressure Humidity
    00:00 +16°C° 0 mm 1 mps 768 mmHg 83%
    01:00 +16°C° 0 mm 1 mps 768 mmHg 85%
    02:00 +16°C° 0 mm 1 mps 768 mmHg 86%
    03:00 +15°C° 0 mm 2 mps 768 mmHg 88%
    04:00 +16°C° 0 mm 2 mps 768 mmHg 87%
    05:00 +16°C° 0 mm 2 mps 768 mmHg 87%
    06:00 +16°C° 0 mm 2 mps 768 mmHg 86%
    07:00 +18°C° 0 mm 2 mps 768 mmHg 78%
    08:00 +19°C° 0 mm 2 mps 768 mmHg 70%
    09:00 +21°C° 0 mm 2 mps 768 mmHg 61%
    10:00 +23°C° 0 mm 2 mps 768 mmHg 59%
    11:00 +24°C° 0 mm 2 mps 768 mmHg 56%
    12:00 +24°C° 0 mm 2 mps 768 mmHg 53%
    13:00 +24°C° 0 mm 2 mps 768 mmHg 58%
    14:00 +23°C° 0 mm 2 mps 768 mmHg 62%
    15:00 +21°C° 0 mm 2 mps 767 mmHg 67%
    16:00 +20°C° 0 mm 3 mps 767 mmHg 70%
    17:00 +20°C° 0 mm 3 mps 767 mmHg 72%
    18:00 +19°C° 0 mm 3 mps 767 mmHg 75%
    19:00 +18°C° 0 mm 3 mps 768 mmHg 78%
    20:00 +17°C° 0 mm 3 mps 768 mmHg 82%
    21:00 +16°C° 0 mm 3 mps 768 mmHg 85%
    22:00 +16°C° 0 mm 3 mps 769 mmHg 87%
    23:00 +16°C° 0 mm 3 mps 769 mmHg 89%

    27 November, Monday

    Time Temperature Precipitation Wind Pressure Humidity
    00:00 +14°C° 0 mm 3 mps 769 mmHg 90%
    01:00 +14°C° 0 mm 3 mps 768 mmHg 92%
    02:00 +14°C° 0 mm 3 mps 768 mmHg 93%
    03:00 +14°C° 0 mm 3 mps 768 mmHg 94%
    04:00 +14°C° 0 mm 3 mps 768 mmHg 93%
    05:00 +14°C° 0 mm 3 mps 768 mmHg 92%
    06:00 +14°C° 0 mm 3 mps 768 mmHg 91%
    07:00 +17°C° 0 mm 3 mps 769 mmHg 80%
    08:00 +19°C° 0 mm 3 mps 769 mmHg 70%
    09:00 +21°C° 0 mm 3 mps 769 mmHg 59%
    10:00 +22°C° 0 mm 3 mps 769 mmHg 58%
    11:00 +22°C° 0 mm 3 mps 769 mmHg 56%
    12:00 +24°C° 0 mm 2 mps 769 mmHg 54%
    13:00 +24°C° 0 mm 2 mps 769 mmHg 54%
    14:00 +24°C° 0 mm 3 mps 769 mmHg 55%
    15:00 +24°C° 0 mm 3 mps 768 mmHg 55%
    16:00 +22°C° 0 mm 3 mps 768 mmHg 59%
    17:00 +21°C° 0 mm 3 mps 769 mmHg 63%
    18:00 +21°C° 0 mm 3 mps 769 mmHg 66%
    19:00 +19°C° 0 mm 3 mps 769 mmHg 73%
    20:00 +18°C° 0 mm 3 mps 770 mmHg 79%
    21:00 +16°C° 0 mm 3 mps 770 mmHg 86%
    22:00 +16°C° 0 mm 3 mps 771 mmHg 88%
    23:00 +14°C° 0 mm 3 mps 771 mmHg 91%

    28 November, Tuesday

    Time Temperature Precipitation Wind Pressure Humidity
    00:00 +14°C° 0 mm 3 mps 771 mmHg 94%
    01:00 +13°C° 0 mm 3 mps 771 mmHg 95%
    02:00 +13°C° 0 mm 3 mps 770 mmHg 95%
    03:00 +13°C° 0 mm 3 mps 770 mmHg 96%
    04:00 +13°C° 0 mm 3 mps 770 mmHg 95%
    05:00 +14°C° 0 mm 3 mps 771 mmHg 93%
    06:00 +14°C° 0 mm 3 mps 771 mmHg 92%
    07:00 +17°C° 0 mm 3 mps 771 mmHg 81%
    08:00 +19°C° 0 mm 3 mps 771 mmHg 70%
    09:00 +21°C° 0 mm 3 mps 772 mmHg 59%
    10:00 +24°C° 0 mm 3 mps 771 mmHg 54%
    11:00 +25°C° 0 mm 3 mps 771 mmHg 49%
    12:00 +26°C° 0 mm 2 mps 771 mmHg 45%
    13:00 +25°C° 0 mm 2 mps 770 mmHg 48%
    14:00 +25°C° 0 mm 2 mps 770 mmHg 51%
    15:00 +24°C° 0 mm 3 mps 770 mmHg 54%
    16:00 +24°C° 0 mm 3 mps 770 mmHg 58%
    17:00 +22°C° 0 mm 3 mps 770 mmHg 61%
    18:00 +21°C° 0 mm 3 mps 770 mmHg 64%
    19:00 +20°C° 0 mm 3 mps 770 mmHg 71%
    20:00 +18°C° 0 mm 3 mps 771 mmHg 78%
    21:00 +17°C° 0 mm 2 mps 771 mmHg 85%
    22:00 +16°C° 0 mm 2 mps 771 mmHg 87%
    23:00 +16°C° 0 mm 2 mps 771 mmHg 90%

    29 November, Wednesday

    Time Temperature Precipitation Wind Pressure Humidity
    00:00 +15°C° 0 mm 2 mps 771 mmHg 93%
    01:00 +15°C° 0 mm 2 mps 771 mmHg 94%
    02:00 +14°C° 0 mm 2 mps 770 mmHg 95%
    03:00 +14°C° 0 mm 2 mps 770 mmHg 96%
    04:00 +14°C° 0 mm 2 mps 770 mmHg 93%
    05:00 +14°C° 0 mm 3 mps 770 mmHg 91%
    06:00 +14°C° 0 mm 3 mps 770 mmHg 89%
    07:00 +17°C° 0 mm 3 mps 770 mmHg 77%
    08:00 +20°C° 0 mm 3 mps 770 mmHg 66%
    09:00 +22°C° 0 mm 3 mps 770 mmHg 55%
    10:00 +24°C° 0 mm 2 mps 770 mmHg 51%
    11:00 +25°C° 0 mm 2 mps 770 mmHg 47%
    12:00 +26°C° 0 mm 2 mps 769 mmHg 44%
    13:00 +25°C° 0 mm 2 mps 769 mmHg 48%
    14:00 +24°C° 0 mm 2 mps 769 mmHg 51%
    15:00 +23°C° 0 mm 2 mps 768 mmHg 55%
    16:00 +21°C° 0 mm 2 mps 768 mmHg 58%
    17:00 +21°C° 0 mm 2 mps 768 mmHg 61%
    18:00 +20°C° 0 mm 2 mps 768 mmHg 64%
    19:00 +19°C° 0 mm 2 mps 769 mmHg 69%
    20:00 +18°C° 0 mm 2 mps 769 mmHg 73%
    21:00 +17°C° 0 mm 2 mps 769 mmHg 77%
    22:00 +17°C° 0 mm 2 mps 769 mmHg 79%
    23:00 +16°C° 0 mm 1 mps 769 mmHg 80%
    Show more